Theta_e
309 309 309 309 308 308 308 308 308 308 308 308 308 308 308 308 308 308 308 308 308 308 308 308 308 307 307 307 307 306 306 305 305 305 305 305 305 306 307 309 309 310
309 309 309 309 309 308 308 308 308 308 308 308 308 308 308 308 308 308 308 308 308 308 308 308 308 307 307 307 307 306 306 305 305 305 305 305 305 305 305 307 308 309
309 309 309 309 309 308 308 308 308 308 308 308 308 308 308 308 308 308 308 308 308 308 308 308 308 307 307 307 307 306 306 306 305 305 305 305 305 305 305 305 306 307
308 308 308 309 308 309 308 308 307 307 307 308 308 308 308 308 308 308 308 308 307 308 308 307 308 307 307 307 307 306 306 306 306 305 305 305 304 304 304 305 305 306
307 308 308 308 308 308 308 307 307 307 307 307 307 307 308 307 307 307 307 307 307 307 307 307 307 307 307 307 306 306 306 306 306 305 305 304 304 305 304 305 305 305
306 307 307 307 308 307 307 307 307 307 307 307 307 307 307 307 307 307 307 307 307 307 307 307 307 307 307 307 306 306 306 306 306 305 305 304 304 304 304 304 305 305
306 306 306 307 308 307 307 307 307 307 307 307 307 307 307 307 307 307 307 307 307 307 307 307 307 307 307 306 306 306 306 306 306 305 304 304 304 304 304 304 304 304
306 306 306 306 307 307 307 307 307 307 307 307 307 307 307 307 307 307 307 307 307 307 307 307 307 307 307 306 306 306 306 305 305 305 305 304 304 304 304 304 304 304
306 306 306 306 306 307 307 307 307 307 307 307 307 307 307 307 307 307 307 307 307 307 307 307 307 307 307 306 306 306 306 306 306 305 305 304 304 304 304 304 304 304
306 306 306 306 306 306 307 307 307 307 307 307 307 307 307 307 307 307 307 307 307 307 307 306 306 307 306 306 306 306 306 306 306 305 305 305 305 305 305 304 304 304
306 306 306 306 306 306 306 306 307 307 307 307 307 307 307 307 307 307 306 306 306 306 306 306 306 306 306 306 306 306 306 306 306 306 305 305 305 305 305 304 304 304
306 306 306 306 306 306 306 307 307 307 307 306 306 307 307 307 307 307 307 306 306 306 306 306 306 306 306 306 306 306 306 306 306 306 306 305 305 305 305 305 305 304
306 305 306 306 306 306 307 307 307 307 307 306 306 306 306 307 307 307 307 307 307 307 307 306 306 306 306 306 306 306 306 306 305 305 305 305 305 305 305 305 305 304
306 305 305 305 306 306 306 307 307 307 307 307 306 306 306 306 307 307 307 307 307 307 307 307 306 306 306 306 305 305 305 305 305 305 305 305 305 305 305 305 305 305
306 305 305 305 306 306 306 307 307 307 307 306 306 306 306 306 306 306 307 307 307 307 307 306 306 306 306 306 306 305 305 305 305 305 305 305 305 305 304 304 304 304
305 305 305 305 305 306 306 306 307 307 306 306 306 306 306 306 306 306 306 306 306 306 306 306 306 306 306 306 306 306 305 305 305 305 305 305 304 304 304 304 304 304
305 305 305 305 305 305 306 306 306 306 306 306 306 306 306 306 306 306 306 306 306 306 306 306 306 306 306 306 306 305 305 305 305 305 304 304 304 304 303 304 304 303
304 304 304 305 305 305 306 306 306 306 306 306 306 306 306 306 306 306 305 305 305 305 305 305 305 305 305 305 305 305 305 305 305 304 304 304 304 304 303 303 303 303
304 304 304 304 305 305 305 306 305 305 306 305 305 305 305 305 305 305 305 305 305 305 304 304 304 304 304 304 304 304 304 304 304 304 304 304 303 303 303 303 303 303
303 304 304 304 304 305 305 304 305 304 304 304 304 304 304 304 305 304 304 304 304 304 303 303 303 303 303 303 303 303 303 303 303 303 302 302 302 302 302 302 301 301
303 303 303 303 303 303 303 303 303 303 303 303 303 304 304 304 304 304 303 303 302 302 302 301 301 302 302 302 302 302 302 302 302 301 301 301 301 300 300 300 300 300
302 302 302 302 302 302 302 302 302 302 302 302 302 302 302 302 302 302 302 301 300 301 300 299 299 300 301 301 301 301 301 301 300 300 300 299 299 299 299 299 299 299
302 302 301 301 301 301 301 301 301 301 301 301 301 301 301 301 300 300 300 300 299 298 298 296 295 297 298 299 299 300 300 299 299 299 298 298 297 296 297 297 297 297
301 301 301 301 301 301 301 300 301 301 301 301 301 300 299 298 298 297 296 296 296 295 295 294 292 293 295 296 297 297 298 298 298 297 296 295 295 294 294 295 294 294
300 301 300 300 300 299 299 299 299 299 299 299 299 298 296 295 296 295 293 292 292 292 292 291 290 290 292 293 294 294 295 295 296 295 294 293 292 292 292 291 291 291
297 298 298 298 298 297 297 298 298 298 298 297 297 296 294 293 293 292 289 288 289 289 289 289 288 288 288 289 290 291 292 292 293 293 291 290 289 289 288 288 288 288
Wind_Speed
23 22 22 22 22 22 22 22 23 23 24 25 26 27 27 27 28 30 31 32 32 32 32 32 31 31 30 29 29 29 29 29 29 29 28 28 29 29 29 30 29 28
21 21 21 21 21 22 22 22 23 24 24 25 25 25 25 25 26 28 29 30 31 31 31 31 31 31 30 30 29 29 29 29 29 29 28 29 29 29 29 30 29 29
20 20 21 22 22 22 22 22 23 23 24 24 24 24 24 24 24 25 26 27 29 30 31 31 31 31 31 31 30 30 30 29 29 29 29 29 29 29 29 29 29 28
20 21 22 22 22 22 22 22 23 23 23 23 23 23 23 23 23 24 24 25 27 28 29 30 31 31 31 31 30 30 30 30 29 29 29 29 29 29 29 28 28 28
20 21 22 22 22 22 22 23 23 23 23 23 23 23 23 23 23 24 24 24 25 26 28 29 30 31 31 31 31 30 30 30 29 29 29 29 29 29 29 28 28 28
20 21 21 21 21 22 22 23 22 22 22 22 22 22 23 23 23 23 23 23 24 25 26 28 29 30 30 30 30 30 30 30 29 29 29 29 29 29 29 28 28 28
20 21 21 21 21 22 22 22 21 21 21 21 22 22 23 23 23 23 23 22 23 24 25 26 27 29 30 30 30 30 30 30 29 29 29 29 29 29 29 29 29 29
19 20 21 21 22 22 22 22 21 21 21 21 22 23 23 23 23 23 22 22 22 23 24 25 26 27 28 29 30 30 30 30 30 30 30 30 29 30 30 29 29 29
19 20 20 21 21 22 22 21 21 21 21 22 23 23 23 23 23 23 23 23 23 23 24 25 25 26 28 29 30 30 30 30 31 31 31 30 30 30 30 29 29 30
20 20 20 21 21 21 21 21 21 21 21 23 23 23 23 23 23 23 23 23 24 24 25 25 26 26 27 28 29 29 30 30 30 31 31 31 31 30 30 29 29 29
20 19 20 20 20 21 21 21 21 21 22 22 23 23 24 23 23 23 23 24 24 24 25 25 25 26 27 27 27 28 28 29 29 29 30 30 30 30 29 29 29 29
20 20 21 21 20 20 21 21 20 20 21 22 23 24 23 23 23 23 23 23 23 23 23 24 24 24 25 26 26 26 27 27 28 28 28 28 28 28 28 28 28 28
21 22 22 21 21 21 20 20 20 20 21 21 21 22 23 23 23 22 22 22 22 22 22 22 22 23 24 24 24 25 25 26 26 26 27 27 26 26 26 26 26 26
22 22 22 22 21 21 21 20 20 20 19 19 20 21 22 22 21 21 20 20 20 19 19 20 21 22 22 23 23 24 24 25 25 25 25 25 25 25 24 24 24 24
23 23 22 21 21 21 20 20 19 19 18 18 19 19 19 18 18 18 18 18 18 18 18 19 20 21 21 21 22 23 23 23 23 23 24 24 24 23 23 23 22 22
23 22 20 20 20 20 20 19 18 17 17 17 16 16 16 16 16 16 16 17 17 17 18 18 18 18 18 19 19 20 20 21 21 21 22 22 22 21 21 21 20 20
22 21 19 19 19 19 18 18 17 16 16 15 15 15 15 15 15 15 15 15 15 15 16 16 16 15 15 16 16 17 18 18 19 19 19 19 20 19 19 18 17 17
21 20 19 19 19 18 18 17 17 16 16 16 15 15 15 15 15 14 14 14 14 14 14 14 14 13 14 14 14 15 15 16 16 16 16 16 16 16 16 15 14 14
20 19 19 19 19 18 18 18 17 17 17 17 17 16 16 16 15 15 15 15 14 14 14 13 13 13 13 13 13 13 14 14 14 14 13 13 13 12 12 12 11 11
18 19 19 19 19 19 18 19 18 18 18 17 17 17 17 17 17 17 16 16 15 16 15 14 13 13 13 13 13 13 13 13 12 11 10 9 9 9 8 8 8 8
17 18 18 17 17 18 18 18 18 18 18 18 18 18 18 17 17 17 18 18 17 17 17 16 14 13 13 14 14 14 14 13 12 11 10 9 9 8 8 8 8 8
17 17 17 16 16 17 17 17 17 17 17 17 18 18 18 18 18 18 19 20 19 19 18 17 14 13 14 14 14 14 14 13 13 12 11 10 9 9 8 8 8 7
19 19 18 18 18 17 17 16 16 17 17 18 19 20 20 20 21 20 20 21 20 18 18 17 15 12 12 13 12 12 13 13 13 13 12 11 10 8 7 7 6 5
20 21 21 21 20 19 19 18 18 18 18 18 20 22 21 21 22 22 20 20 19 18 17 17 15 12 10 11 11 11 11 13 13 14 14 12 11 10 8 7 6 4
20 22 22 23 21 20 20 20 19 20 20 20 21 22 23 22 22 23 22 21 20 19 18 17 17 14 11 11 11 10 10 11 12 13 13 12 11 10 9 8 7 6
19 21 22 22 22 22 21 21 21 21 22 22 23 24 25 24 24 25 25 23 21 21 19 19 18 16 14 12 12 11 10 10 11 11 11 11 10 10 10 9 7 6
Wind_Direction
224 224 225 225 226 226 225 223 220 219 220 220 220 222 224 224 224 222 221 222 222 224 225 226 227 229 229 230 230 230 230 231 233 234 234 235 238 238 238 239 240 241
226 227 228 228 228 228 227 227 225 224 223 224 226 227 228 227 225 224 223 223 223 224 226 227 228 229 230 230 230 229 230 231 232 234 234 236 238 239 240 241 242 243
230 230 230 231 230 229 229 228 227 227 226 227 228 228 228 227 226 225 225 225 224 225 226 227 228 229 230 231 231 231 231 232 233 234 235 237 239 240 243 244 244 244
233 234 233 233 233 232 231 228 226 226 225 227 228 228 228 228 227 226 225 225 225 226 226 227 228 229 230 231 231 231 231 233 235 236 235 236 238 240 243 244 244 245
236 236 235 234 234 232 230 227 226 225 225 226 227 227 227 226 225 224 224 224 224 226 226 227 228 229 230 230 229 230 231 232 234 234 234 235 237 239 241 242 242 244
237 236 235 235 233 231 230 228 228 227 227 228 227 227 226 225 225 224 224 224 224 225 225 226 227 228 229 229 229 229 230 232 233 232 233 234 236 238 240 240 241 242
238 236 235 234 233 232 231 231 231 230 230 230 229 228 226 225 225 225 225 225 224 225 226 227 227 228 229 228 228 228 229 231 232 232 232 234 235 237 237 238 240 241
239 237 234 233 231 231 232 231 231 231 231 230 228 228 227 225 225 225 225 225 225 225 226 227 228 228 229 228 227 227 228 230 231 230 231 232 233 234 235 237 238 240
238 235 233 231 230 230 232 232 232 231 230 228 228 228 227 226 226 226 225 224 224 225 226 227 228 228 228 228 227 227 228 229 230 230 231 231 231 233 235 235 236 239
236 233 230 229 229 231 233 233 233 231 228 228 227 227 226 225 225 225 224 224 223 223 224 225 226 226 226 227 228 228 229 230 230 231 231 232 233 235 236 235 236 238
236 233 230 229 230 232 233 232 232 230 228 227 225 224 224 223 222 222 223 223 223 224 225 225 227 227 227 228 229 230 231 232 232 233 233 234 236 237 237 237 238 239
235 233 232 231 230 232 232 230 229 228 227 225 223 222 222 220 220 221 222 223 224 226 227 228 228 229 229 230 230 231 231 232 233 234 235 236 237 239 239 240 241 243
234 235 235 233 231 230 229 228 226 225 225 223 221 220 219 219 218 218 220 222 224 226 227 229 229 229 230 231 231 232 231 231 233 234 236 237 239 241 242 243 245 246
234 236 235 233 231 228 226 225 222 222 222 220 218 217 217 217 217 217 218 219 222 224 226 227 228 228 229 229 230 231 231 232 233 234 236 237 239 241 243 244 247 247
232 233 232 231 228 226 224 222 220 218 217 215 215 214 214 214 215 215 215 215 217 219 221 223 226 227 229 229 229 230 230 231 233 234 236 237 239 241 242 244 245 247
228 228 227 225 224 223 222 219 215 213 210 209 208 208 208 208 208 208 210 211 212 214 216 219 223 226 229 231 232 233 233 232 233 234 235 237 239 240 241 244 246 248
223 222 221 220 219 218 216 212 209 205 202 200 198 197 198 199 200 200 201 203 205 208 212 214 217 220 222 225 228 230 232 232 233 234 235 236 238 240 243 246 248 250
217 215 213 213 212 209 206 202 199 196 193 192 190 189 190 189 190 191 190 190 193 196 201 205 208 211 212 215 218 220 224 227 228 231 233 234 236 239 243 247 249 251
210 208 206 204 201 198 195 191 189 188 187 186 184 184 184 182 182 181 180 181 182 183 186 191 195 198 199 201 203 206 211 216 220 224 227 231 235 238 241 245 248 250
203 201 197 193 190 187 183 181 180 180 180 180 180 178 178 177 175 173 171 171 172 173 173 174 179 184 187 188 189 192 197 201 206 211 215 220 225 229 232 236 238 240
192 190 186 182 179 176 174 172 172 171 169 169 170 169 170 169 166 165 162 159 161 162 158 156 161 168 173 176 178 180 183 185 186 188 191 194 199 204 206 211 215 220
182 180 175 170 167 165 162 160 160 159 157 156 155 153 154 153 151 152 153 150 150 152 148 142 143 155 163 165 168 170 171 171 171 172 173 174 177 185 190 194 202 207
177 173 165 159 158 156 153 150 150 150 148 149 147 143 142 144 141 141 144 144 142 142 139 130 125 138 153 156 159 164 165 165 164 161 160 156 153 158 166 171 180 193
170 166 158 153 153 152 149 148 148 148 148 149 148 141 137 137 135 131 131 133 132 130 129 122 112 115 132 140 144 154 159 160 159 154 149 145 141 139 143 147 152 166
161 160 155 151 150 149 148 148 147 147 147 147 146 140 132 130 130 125 119 118 119 118 118 115 108 104 113 121 125 135 145 149 153 152 144 140 140 139 136 136 138 137
150 151 149 148 146 143 143 144 144 144 145 143 140 137 131 128 127 123 115 111 112 112 109 107 103 98 100 107 112 116 126 134 140 140 135 130 131 132 130 129 130 132